• In Russia
  • List of Countries
  • For 7 days
  • Water Temperature
  • Weather Map
  • Weather Widgets
  • user-avatar
    Login

    Hourly Weather Shkoder

    Today, 29 May, Friday

    Time Temperature Precipitation Wind Pressure Humidity
    00:00 +13°C° 0 mm 2 mps 741 mmHg 79%
    01:00 +13°C° 0 mm 2 mps 741 mmHg 79%
    02:00 +13°C° 0 mm 2 mps 741 mmHg 79%
    03:00 +12°C° 0 mm 2 mps 741 mmHg 79%
    04:00 +12°C° 0 mm 2 mps 741 mmHg 79%
    05:00 +13°C° 0 mm 2 mps 741 mmHg 76%
    06:00 +15°C° 0 mm 2 mps 741 mmHg 72%
    07:00 +16°C° 0 mm 2 mps 741 mmHg 68%
    08:00 +17°C° 0.1 mm 2 mps 741 mmHg 63%
    09:00 +20°C° 0.1 mm 1 mps 741 mmHg 57%
    10:00 +21°C° 0.1 mm 1 mps 741 mmHg 52%
    11:00 +21°C° 0.3 mm 2 mps 741 mmHg 51%
    12:00 +21°C° 0.3 mm 2 mps 740 mmHg 50%
    13:00 +23°C° 0.3 mm 2 mps 740 mmHg 49%
    14:00 +21°C° 0.6 mm 2 mps 740 mmHg 52%
    15:00 +21°C° 0.6 mm 2 mps 740 mmHg 55%
    16:00 +20°C° 0.6 mm 2 mps 739 mmHg 58%
    17:00 +19°C° 0.4 mm 2 mps 739 mmHg 64%
    18:00 +19°C° 0.4 mm 1 mps 740 mmHg 69%
    19:00 +16°C° 0.4 mm 1 mps 740 mmHg 75%
    20:00 +15°C° 0.1 mm 1 mps 740 mmHg 77%
    21:00 +15°C° 0.1 mm 1 mps 740 mmHg 78%
    22:00 +14°C° 0.1 mm 1 mps 740 mmHg 80%
    23:00 +13°C° 0 mm 1 mps 740 mmHg 80%

    Tomorrow, 30 May, Saturday

    Time Temperature Precipitation Wind Pressure Humidity
    00:00 +13°C° 0 mm 1 mps 740 mmHg 80%
    01:00 +13°C° 0 mm 1 mps 740 mmHg 80%
    02:00 +12°C° 0 mm 1 mps 740 mmHg 81%
    03:00 +12°C° 0 mm 1 mps 740 mmHg 81%
    04:00 +12°C° 0 mm 1 mps 740 mmHg 82%
    05:00 +13°C° 0 mm 1 mps 740 mmHg 80%
    06:00 +15°C° 0 mm 1 mps 740 mmHg 77%
    07:00 +16°C° 0 mm 1 mps 740 mmHg 75%
    08:00 +18°C° 0.5 mm 1 mps 740 mmHg 73%
    09:00 +18°C° 0.5 mm 2 mps 739 mmHg 71%
    10:00 +19°C° 0.5 mm 2 mps 739 mmHg 70%
    11:00 +19°C° 0.3 mm 2 mps 739 mmHg 66%
    12:00 +20°C° 0.3 mm 3 mps 739 mmHg 63%
    13:00 +20°C° 0.3 mm 3 mps 739 mmHg 60%
    14:00 +20°C° 0.4 mm 3 mps 739 mmHg 61%
    15:00 +20°C° 0.4 mm 3 mps 739 mmHg 62%
    16:00 +19°C° 0.4 mm 2 mps 738 mmHg 63%
    17:00 +18°C° 0.3 mm 2 mps 738 mmHg 69%
    18:00 +16°C° 0.3 mm 1 mps 738 mmHg 74%
    19:00 +15°C° 0.3 mm 1 mps 738 mmHg 80%
    20:00 +14°C° 0 mm 1 mps 739 mmHg 79%
    21:00 +14°C° 0 mm 1 mps 739 mmHg 79%
    22:00 +13°C° 0 mm 1 mps 739 mmHg 79%
    23:00 +13°C° 0.1 mm 1 mps 739 mmHg 79%

    Day after tomorrow, 31 May, Sunday

    Time Temperature Precipitation Wind Pressure Humidity
    00:00 +13°C° 0.1 mm 1 mps 739 mmHg 79%
    01:00 +12°C° 0.1 mm 0 mps 739 mmHg 80%
    02:00 +12°C° 0.3 mm 0 mps 739 mmHg 83%
    03:00 +13°C° 0.3 mm 1 mps 739 mmHg 85%
    04:00 +13°C° 0.3 mm 1 mps 739 mmHg 88%
    05:00 +13°C° 0.5 mm 1 mps 738 mmHg 89%
    06:00 +14°C° 0.5 mm 1 mps 738 mmHg 89%
    07:00 +14°C° 0.5 mm 1 mps 738 mmHg 89%
    08:00 +14°C° 0.5 mm 1 mps 738 mmHg 88%
    09:00 +14°C° 0.5 mm 1 mps 738 mmHg 88%
    10:00 +15°C° 0.5 mm 1 mps 738 mmHg 88%
    11:00 +16°C° 0.4 mm 2 mps 738 mmHg 83%
    12:00 +17°C° 0.4 mm 2 mps 738 mmHg 79%
    13:00 +18°C° 0.4 mm 2 mps 738 mmHg 74%
    14:00 +18°C° 0.7 mm 2 mps 737 mmHg 75%
    15:00 +18°C° 0.7 mm 2 mps 737 mmHg 75%
    16:00 +18°C° 0.7 mm 2 mps 737 mmHg 76%
    17:00 +17°C° 0.3 mm 2 mps 737 mmHg 80%
    18:00 +16°C° 0.3 mm 1 mps 737 mmHg 84%
    19:00 +15°C° 0.3 mm 1 mps 737 mmHg 88%
    20:00 +14°C° 0.2 mm 1 mps 737 mmHg 89%
    21:00 +13°C° 0.2 mm 1 mps 737 mmHg 90%
    22:00 +13°C° 0.2 mm 1 mps 737 mmHg 90%
    23:00 +13°C° 0.2 mm 1 mps 737 mmHg 91%

    1 June, Monday

    Time Temperature Precipitation Wind Pressure Humidity
    00:00 +13°C° 0.2 mm 1 mps 737 mmHg 91%
    01:00 +13°C° 0.2 mm 1 mps 737 mmHg 91%
    02:00 +13°C° 0.2 mm 1 mps 737 mmHg 91%
    03:00 +13°C° 0.2 mm 1 mps 737 mmHg 92%
    04:00 +13°C° 0.2 mm 1 mps 736 mmHg 92%
    05:00 +14°C° 0.4 mm 1 mps 736 mmHg 89%
    06:00 +15°C° 0.4 mm 1 mps 736 mmHg 86%
    07:00 +15°C° 0.4 mm 2 mps 736 mmHg 83%
    08:00 +15°C° 0.4 mm 2 mps 736 mmHg 83%
    09:00 +16°C° 0.4 mm 2 mps 736 mmHg 83%
    10:00 +16°C° 0.4 mm 3 mps 736 mmHg 83%
    11:00 +16°C° 0.4 mm 3 mps 736 mmHg 80%
    12:00 +17°C° 0.4 mm 3 mps 736 mmHg 77%
    13:00 +18°C° 0.4 mm 3 mps 736 mmHg 74%
    14:00 +18°C° 0.4 mm 3 mps 736 mmHg 74%
    15:00 +18°C° 0.4 mm 3 mps 736 mmHg 74%
    16:00 +18°C° 0.4 mm 2 mps 736 mmHg 75%
    17:00 +17°C° 0.2 mm 2 mps 736 mmHg 78%
    18:00 +16°C° 0.2 mm 1 mps 736 mmHg 82%
    19:00 +15°C° 0.2 mm 1 mps 736 mmHg 86%
    20:00 +14°C° 0.1 mm 1 mps 736 mmHg 86%
    21:00 +14°C° 0.1 mm 1 mps 736 mmHg 87%
    22:00 +13°C° 0.1 mm 1 mps 737 mmHg 88%
    23:00 +13°C° 0 mm 1 mps 736 mmHg 88%

    2 June, Tuesday

    Time Temperature Precipitation Wind Pressure Humidity
    00:00 +13°C° 0 mm 1 mps 736 mmHg 88%
    01:00 +13°C° 0 mm 1 mps 736 mmHg 88%
    02:00 +13°C° 0 mm 1 mps 736 mmHg 88%
    03:00 +13°C° 0 mm 1 mps 736 mmHg 89%
    04:00 +13°C° 0 mm 1 mps 736 mmHg 89%
    05:00 +14°C° 0 mm 1 mps 736 mmHg 86%
    06:00 +15°C° 0 mm 2 mps 736 mmHg 83%
    07:00 +16°C° 0 mm 2 mps 736 mmHg 79%
    08:00 +17°C° 0.2 mm 2 mps 736 mmHg 75%
    09:00 +18°C° 0.2 mm 2 mps 736 mmHg 71%
    10:00 +19°C° 0.2 mm 2 mps 736 mmHg 67%
    11:00 +20°C° 0.7 mm 2 mps 736 mmHg 66%
    12:00 +20°C° 0.7 mm 2 mps 736 mmHg 65%
    13:00 +22°C° 0.7 mm 1 mps 736 mmHg 64%
    14:00 +21°C° 1.3 mm 1 mps 736 mmHg 67%
    15:00 +21°C° 1.3 mm 1 mps 736 mmHg 70%
    16:00 +20°C° 1.3 mm 1 mps 735 mmHg 72%
    17:00 +19°C° 0.6 mm 1 mps 735 mmHg 76%
    18:00 +18°C° 0.6 mm 1 mps 735 mmHg 80%
    19:00 +16°C° 0.6 mm 1 mps 736 mmHg 84%
    20:00 +16°C° 0.2 mm 1 mps 736 mmHg 84%
    21:00 +15°C° 0.2 mm 1 mps 736 mmHg 85%
    22:00 +15°C° 0.2 mm 1 mps 737 mmHg 86%
    23:00 +15°C° 0.1 mm 1 mps 736 mmHg 87%

    3 June, Wednesday

    Time Temperature Precipitation Wind Pressure Humidity
    00:00 +15°C° 0.1 mm 1 mps 736 mmHg 87%
    01:00 +14°C° 0.1 mm 1 mps 736 mmHg 88%
    02:00 +14°C° 0 mm 1 mps 736 mmHg 88%
    03:00 +14°C° 0 mm 1 mps 736 mmHg 88%
    04:00 +14°C° 0 mm 1 mps 736 mmHg 88%
    05:00 +15°C° 0 mm 1 mps 736 mmHg 85%
    06:00 +16°C° 0 mm 1 mps 736 mmHg 82%
    07:00 +18°C° 0 mm 1 mps 737 mmHg 79%
    08:00 +19°C° 0.2 mm 1 mps 737 mmHg 77%
    09:00 +20°C° 0.2 mm 1 mps 737 mmHg 75%
    10:00 +21°C° 0.2 mm 1 mps 737 mmHg 73%
    11:00 +22°C° 0.6 mm 1 mps 737 mmHg 71%
    12:00 +21°C° 0.6 mm 2 mps 737 mmHg 70%
    13:00 +23°C° 0.6 mm 2 mps 737 mmHg 68%
    14:00 +21°C° 0.7 mm 2 mps 736 mmHg 69%
    15:00 +21°C° 0.7 mm 2 mps 736 mmHg 70%
    16:00 +21°C° 0.7 mm 2 mps 736 mmHg 71%
    17:00 +20°C° 0.2 mm 2 mps 737 mmHg 76%
    18:00 +19°C° 0.2 mm 1 mps 737 mmHg 81%
    19:00 +18°C° 0.2 mm 1 mps 737 mmHg 86%
    20:00 +16°C° 0 mm 1 mps 737 mmHg 87%
    21:00 +16°C° 0 mm 1 mps 738 mmHg 87%
    22:00 +14°C° 0 mm 0 mps 738 mmHg 88%
    23:00 +15°C° 0 mm 1 mps 738 mmHg 88%
    Show more